Fergus Falls, MN

12:07 AM CST on November 18, 2019 (GMT -0600)
Fergus Falls Municipal-Mickelson

Weather History for KFFM - September, 2019

Change the Weather History Date:

Sunday, September 1, 2019

  Actual Average Record
Temperature  
Mean Temperature 63 °F -  
Max Temperature 69 °F 75 °F 90 °F (1979)
Min Temperature 57 °F 54 °F 37 °F (1949)
Degree Days  
Heating Degree Days 2    
Growing Degree Days 13 (Base 50)    
Moisture  
Dew Point 57 °F    
Average Humidity 82    
Maximum Humidity 94    
Minimum Humidity 68    
Precipitation  
Precipitation 0.00 in - - ()
Sea Level Pressure  
Sea Level Pressure 30.07 in    
Wind  
Wind Speed 5 mph ()    
Max Wind Speed 10 mph    
Max Gust Speed -    
Visibility 10.0 miles    
Events      
Averages and records for this station are not official NWS values.
T = Trace of Precipitation, MM = Missing Value Source: Averaged Metar Reports

Daily Weather History Graph

Daily Weather History Graph

Search for Another Location

Airport or City:

Astronomy

Sep. 01, 2019 Rise Set
Actual Time 6:44 AM CDT 8:03 PM CDT
Civil Twilight 6:13 AM CDT 8:34 PM CDT
Nautical Twilight 5:36 AM CDT 9:12 PM CDT
Astronomical Twilight 4:55 AM CDT 9:51 PM CDT
Moon 9:22 AM CDT (9/1) 9:42 PM CDT (9/1)
Length of Visible Light 14h 20m
Length of Day
13h 18m
Waxing Crescent, 8% of the Moon is Illuminated
Sep 1
Waxing Crescent
Sep 5
First Quarter
Sep 13
Full
Sep 21
Last Quarter
Sep 28
New

Hourly Weather History & Observations

Time (CDT) Temp. Dew Point Humidity Pressure Visibility Wind Dir Wind Speed Gust Speed Precip Events Conditions
12:19 AM 62.6 °F 55.4 °F 77% 30.13 in 10.0 mi SSE 9.2 mph - N/A   Overcast
12:36 AM 62.6 °F 55.4 °F 77% 30.13 in 10.0 mi SSE 6.9 mph - N/A   Overcast
12:56 AM 62.6 °F 55.4 °F 77% 30.13 in 10.0 mi SSE 9.2 mph - N/A   Overcast
1:15 AM 60.8 °F 55.4 °F 82% 30.13 in 10.0 mi South 8.1 mph - N/A   Overcast
1:16 AM 60.8 °F 55.4 °F 82% 30.13 in 10.0 mi South 8.1 mph - N/A   Overcast
1:35 AM 60.8 °F 55.4 °F 82% 30.13 in 10.0 mi South 6.9 mph - N/A   Overcast
1:39 AM 60.8 °F 55.4 °F 82% 30.12 in 10.0 mi South 8.1 mph - N/A   Overcast
1:58 AM 60.8 °F 55.4 °F 82% 30.12 in 10.0 mi South 5.8 mph - N/A   Mostly Cloudy
2:15 AM 60.8 °F 55.4 °F 82% 30.11 in 10.0 mi SSE 5.8 mph - N/A   Mostly Cloudy
2:35 AM 60.8 °F 55.4 °F 82% 30.10 in 10.0 mi SSE 6.9 mph - N/A   Overcast
2:36 AM 60.8 °F 55.4 °F 82% 30.10 in 10.0 mi SSE 6.9 mph - N/A   Overcast
2:55 AM 60.8 °F 55.4 °F 82% 30.10 in 10.0 mi SSE 5.8 mph - N/A   Overcast
2:56 AM 60.8 °F 55.4 °F 82% 30.10 in 10.0 mi SSE 6.9 mph - N/A   Overcast
3:19 AM 60.8 °F 55.4 °F 82% 30.10 in 10.0 mi SSE 6.9 mph - N/A   Overcast
3:37 AM 60.8 °F 55.4 °F 82% 30.09 in 10.0 mi South 8.1 mph - N/A   Overcast
3:56 AM 60.8 °F 55.4 °F 82% 30.09 in 10.0 mi South 8.1 mph - N/A   Overcast
4:15 AM 60.8 °F 55.4 °F 82% 30.08 in 10.0 mi South 6.9 mph - N/A   Overcast
4:16 AM 60.8 °F 55.4 °F 82% 30.08 in 10.0 mi South 8.1 mph - N/A   Overcast
4:35 AM 60.8 °F 53.6 °F 77% 30.08 in 10.0 mi South 8.1 mph - N/A   Overcast
4:57 AM 60.8 °F 53.6 °F 77% 30.08 in 10.0 mi South 6.9 mph - N/A   Overcast
5:16 AM 60.8 °F 53.6 °F 77% 30.07 in 10.0 mi South 10.4 mph - N/A   Overcast
5:35 AM 60.8 °F 53.6 °F 77% 30.07 in 10.0 mi South 8.1 mph - N/A   Overcast
5:36 AM 60.8 °F 53.6 °F 77% 30.07 in 10.0 mi South 8.1 mph - N/A   Overcast
5:55 AM 59.0 °F 53.6 °F 82% 30.06 in 10.0 mi SSW 9.2 mph - N/A   Overcast
5:56 AM 59.0 °F 53.6 °F 82% 30.07 in 10.0 mi SSW 6.9 mph - N/A   Overcast
6:18 AM 59.0 °F 53.6 °F 82% 30.07 in 10.0 mi South 9.2 mph - N/A   Overcast
6:36 AM 59.0 °F 55.4 °F 88% 30.07 in 10.0 mi South 6.9 mph - N/A   Overcast
6:55 AM 57.2 °F 55.4 °F 94% 30.07 in 10.0 mi South 5.8 mph - N/A   Overcast
6:56 AM 57.2 °F 55.4 °F 94% 30.07 in 10.0 mi South 6.9 mph - N/A   Overcast
7:15 AM 57.2 °F 55.4 °F 94% 30.07 in 10.0 mi South 5.8 mph - N/A   Overcast
7:16 AM 57.2 °F 55.4 °F 94% 30.07 in 10.0 mi South 5.8 mph - N/A   Overcast
7:35 AM 57.2 °F 55.4 °F 94% 30.06 in 10.0 mi South 5.8 mph - N/A   Overcast
7:39 AM 57.2 °F 55.4 °F 94% 30.06 in 10.0 mi South 5.8 mph - N/A   Overcast
7:57 AM 59.0 °F 55.4 °F 88% 30.06 in 10.0 mi South 4.6 mph - N/A   Overcast
8:15 AM 59.0 °F 55.4 °F 88% 30.06 in 10.0 mi South 4.6 mph - N/A   Overcast
8:35 AM 60.8 °F 55.4 °F 82% 30.06 in 10.0 mi South 3.5 mph - N/A   Overcast
8:55 AM 60.8 °F 55.4 °F 82% 30.06 in 10.0 mi SSE 4.6 mph - N/A   Overcast
8:56 AM 60.8 °F 55.4 °F 82% 30.06 in 10.0 mi SSE 4.6 mph - N/A   Overcast
9:18 AM 60.8 °F 55.4 °F 82% 30.06 in 10.0 mi SSW 3.5 mph - N/A   Overcast
9:37 AM 60.8 °F 55.4 °F 82% 30.06 in 10.0 mi SSW 3.5 mph - N/A   Overcast
9:56 AM 60.8 °F 55.4 °F 82% 30.06 in 10.0 mi SW 3.5 mph - N/A   Overcast
10:15 AM 62.6 °F 57.2 °F 82% 30.06 in 10.0 mi SW 3.5 mph - N/A   Overcast
10:16 AM 60.8 °F 57.2 °F 88% 30.06 in 10.0 mi SSW 3.5 mph - N/A   Overcast
10:35 AM 62.6 °F 57.2 °F 82% 30.05 in 10.0 mi WSW 3.5 mph - N/A   Overcast
10:39 AM 62.6 °F 57.2 °F 82% 30.06 in 10.0 mi SW 3.5 mph - N/A   Overcast
10:57 AM 62.6 °F 57.2 °F 82% 30.06 in 10.0 mi Calm Calm - N/A   Overcast
11:15 AM 62.6 °F 57.2 °F 82% 30.05 in 10.0 mi Calm Calm - N/A   Overcast
11:35 AM 62.6 °F 57.2 °F 82% 30.05 in 10.0 mi Calm Calm - N/A   Overcast
11:36 AM 62.6 °F 57.2 °F 82% 30.05 in 10.0 mi Calm Calm - N/A   Overcast
11:55 AM 62.6 °F 57.2 °F 82% 30.05 in 10.0 mi Calm Calm - N/A   Overcast
12:18 PM 64.4 °F 59.0 °F 83% 30.05 in 10.0 mi NNW 3.5 mph - N/A   Overcast
12:36 PM 64.4 °F 57.2 °F 77% 30.05 in 10.0 mi Calm Calm - N/A   Overcast
12:55 PM 64.4 °F 57.2 °F 77% 30.05 in 10.0 mi WNW 3.5 mph - N/A   Overcast
1:15 PM 64.4 °F 57.2 °F 77% 30.05 in 10.0 mi Calm Calm - N/A   Overcast
1:16 PM 64.4 °F 57.2 °F 77% 30.05 in 10.0 mi Calm Calm - N/A   Overcast
1:35 PM 64.4 °F 59.0 °F 83% 30.05 in 10.0 mi Calm Calm - N/A   Overcast
1:36 PM 64.4 °F 59.0 °F 83% 30.05 in 10.0 mi Calm Calm - N/A   Overcast
1:58 PM 64.4 °F 59.0 °F 83% 30.05 in 10.0 mi Calm Calm - N/A   Overcast
2:17 PM 64.4 °F 59.0 °F 83% 30.05 in 10.0 mi Calm Calm - N/A   Overcast
2:36 PM 64.4 °F 59.0 °F 83% 30.05 in 10.0 mi Calm Calm - N/A   Overcast
2:55 PM 64.4 °F 59.0 °F 83% 30.05 in 10.0 mi Calm Calm - N/A   Overcast
2:56 PM 64.4 °F 59.0 °F 83% 30.05 in 10.0 mi Calm Calm - N/A   Overcast
3:15 PM 66.2 °F 59.0 °F 78% 30.05 in 10.0 mi Calm Calm - N/A   Overcast
3:20 PM 66.2 °F 59.0 °F 78% 30.05 in 10.0 mi Calm Calm - N/A   Overcast
3:37 PM 66.2 °F 60.8 °F 83% 30.05 in 10.0 mi North 3.5 mph - N/A   Overcast
3:55 PM 66.2 °F 59.0 °F 78% 30.06 in 10.0 mi NNE 4.6 mph - N/A   Overcast
4:15 PM 66.2 °F 59.0 °F 78% 30.05 in 10.0 mi Calm Calm - N/A   Overcast
4:35 PM 66.2 °F 59.0 °F 78% 30.04 in 10.0 mi Calm Calm - N/A   Overcast
4:36 PM 66.2 °F 59.0 °F 78% 30.04 in 10.0 mi Calm Calm - N/A   Overcast
4:59 PM 68.0 °F 60.8 °F 78% 30.04 in 10.0 mi Calm Calm - N/A   Overcast
5:16 PM 68.0 °F 59.0 °F 73% 30.04 in 10.0 mi Calm Calm - N/A   Overcast
5:36 PM 68.0 °F 59.0 °F 73% 30.04 in 10.0 mi Calm Calm - N/A   Overcast
5:55 PM 68.0 °F 59.0 °F 73% 30.05 in 10.0 mi Calm Calm - N/A   Overcast
6:15 PM 68.0 °F 59.0 °F 73% 30.04 in 10.0 mi Calm Calm - N/A   Mostly Cloudy
6:19 PM 68.0 °F 59.0 °F 73% 30.04 in 10.0 mi Calm Calm - N/A   Overcast
6:37 PM 66.2 °F 59.0 °F 78% 30.05 in 10.0 mi WNW 3.5 mph - N/A   Overcast
6:55 PM 68.0 °F 59.0 °F 73% 30.05 in 10.0 mi Calm Calm - N/A   Scattered Clouds
7:15 PM 69.8 °F 59.0 °F 68% 30.05 in 10.0 mi Calm Calm - N/A   Clear
7:16 PM 69.8 °F 59.0 °F 68% 30.05 in 10.0 mi Calm Calm - N/A   Scattered Clouds
7:35 PM 66.2 °F 60.8 °F 83% 30.05 in 10.0 mi WNW 3.5 mph - N/A   Mostly Cloudy
7:39 PM 66.2 °F 60.8 °F 83% 30.06 in 10.0 mi WNW 3.5 mph - N/A   Mostly Cloudy
7:57 PM 66.2 °F 60.8 °F 83% 30.06 in 10.0 mi Calm Calm - N/A   Overcast
8:16 PM 66.2 °F 60.8 °F 83% 30.06 in 10.0 mi Calm Calm - N/A   Overcast
8:35 PM 64.4 °F 60.8 °F 88% 30.06 in 10.0 mi WSW 3.5 mph - N/A   Overcast
8:36 PM 64.4 °F 60.8 °F 88% 30.06 in 10.0 mi WSW 4.6 mph - N/A   Overcast
8:55 PM 62.6 °F 59.0 °F 88% 30.07 in 10.0 mi WSW 3.5 mph - N/A   Scattered Clouds
8:59 PM 62.6 °F 59.0 °F 88% 30.07 in 10.0 mi Calm Calm - N/A   Scattered Clouds
9:15 PM 62.6 °F 59.0 °F 88% 30.07 in 10.0 mi Calm Calm - N/A   Clear
9:35 PM 64.4 °F 59.0 °F 83% 30.07 in 10.0 mi Calm Calm - N/A   Clear
9:36 PM 62.6 °F 57.2 °F 82% 30.07 in 10.0 mi Calm Calm - N/A   Clear
9:55 PM 62.6 °F 59.0 °F 88% 30.08 in 10.0 mi Calm Calm - N/A   Clear
9:56 PM 62.6 °F 59.0 °F 88% 30.08 in 10.0 mi Calm Calm - N/A   Clear
10:18 PM 60.8 °F 57.2 °F 88% 30.09 in 10.0 mi Calm Calm - N/A   Clear
10:37 PM 60.8 °F 59.0 °F 94% 30.08 in 10.0 mi Calm Calm - N/A   Clear
10:56 PM 60.8 °F 57.2 °F 88% 30.10 in 10.0 mi Calm Calm - N/A   Clear
11:15 PM 60.8 °F 59.0 °F 94% 30.10 in 10.0 mi Calm Calm - N/A   Clear
11:16 PM 60.8 °F 57.2 °F 88% 30.10 in 10.0 mi Calm Calm - N/A   Clear
11:35 PM 60.8 °F 57.2 °F 88% 30.10 in 10.0 mi Calm Calm - N/A   Mostly Cloudy
11:39 PM 60.8 °F 57.2 °F 88% 30.10 in 10.0 mi Calm Calm - N/A   Mostly Cloudy
11:57 PM 60.8 °F 59.0 °F 94% 30.10 in 7.0 mi Calm Calm - N/A   Scattered Clouds